Time,TemperatureF,DewpointF,PressureIn,WindDirection,WindDirectionDegrees,WindSpeedMPH,WindSpeedGustMPH,Humidity,HourlyPrecipIn,Conditions,Clouds,dailyrainin,SoftwareType,DateUTC
2013-02-10 01:00:00,25.0,-99.9,-100.00,SW,221,4.0,-999.0,-999,-99.99,,,-99.99,,2013-02-10 08:00:00,
2013-02-10 01:52:00,25.0,-99.9,-100.00,SW,221,4.0,-999.0,-999,-99.99,,,-99.99,,2013-02-10 08:52:00,
2013-02-10 02:00:00,25.0,-99.9,-100.00,WSW,243,3.0,-999.0,-999,-99.99,,,-99.99,,2013-02-10 09:00:00,
2013-02-10 02:52:00,25.0,-99.9,-100.00,WSW,243,3.0,-999.0,-999,-99.99,,,-99.99,,2013-02-10 09:52:00,
2013-02-10 03:00:00,24.0,-99.9,-100.00,SW,233,1.0,-999.0,-999,-99.99,,,-99.99,,2013-02-10 10:00:00,
2013-02-10 03:52:00,24.0,-99.9,-100.00,SW,233,1.0,-999.0,-999,-99.99,,,-99.99,,2013-02-10 10:52:00,
2013-02-10 04:00:00,25.0,-99.9,-100.00,WSW,243,1.0,-999.0,-999,-99.99,,,-99.99,,2013-02-10 11:00:00,
2013-02-10 04:52:00,25.0,-99.9,-100.00,WSW,243,1.0,-999.0,-999,-99.99,,,-99.99,,2013-02-10 11:52:00,
2013-02-10 05:00:00,25.0,-99.9,-100.00,SW,236,3.0,-999.0,-999,-99.99,,,-99.99,,2013-02-10 12:00:00,
2013-02-10 05:52:00,25.0,-99.9,-100.00,SW,236,3.0,-999.0,-999,-99.99,,,-99.99,,2013-02-10 12:52:00,
2013-02-10 06:00:00,25.0,-99.9,-100.00,SSW,213,3.0,-999.0,-999,-99.99,,,-99.99,,2013-02-10 13:00:00,
2013-02-10 06:52:00,25.0,-99.9,-100.00,SSW,213,3.0,-999.0,-999,-99.99,,,-99.99,,2013-02-10 13:52:00,
2013-02-10 07:00:00,27.0,-99.9,-100.00,NE,50,4.0,-999.0,-999,-99.99,,,-99.99,,2013-02-10 14:00:00,
2013-02-10 07:52:00,27.0,-99.9,-100.00,NE,50,4.0,-999.0,-999,-99.99,,,-99.99,,2013-02-10 14:52:00,
2013-02-10 08:00:00,28.0,-99.9,-100.00,NNE,21,4.0,-999.0,-999,-99.99,,,-99.99,,2013-02-10 15:00:00,
2013-02-10 08:52:00,28.0,-99.9,-100.00,NNE,21,4.0,-999.0,-999,-99.99,,,-99.99,,2013-02-10 15:52:00,
2013-02-10 09:00:00,30.0,-99.9,-100.00,North,2,5.0,-999.0,-999,-99.99,,,-99.99,,2013-02-10 16:00:00,
2013-02-10 09:52:00,30.0,-99.9,-100.00,North,2,5.0,-999.0,-999,-99.99,,,-99.99,,2013-02-10 16:52:00,
2013-02-10 10:00:00,33.0,-99.9,-100.00,North,8,11.0,-999.0,-999,-99.99,,,-99.99,,2013-02-10 17:00:00,
2013-02-10 10:53:00,33.0,-99.9,-100.00,North,8,11.0,-999.0,-999,-99.99,,,-99.99,,2013-02-10 17:53:00,
2013-02-10 11:00:00,34.0,-99.9,-100.00,NNW,344,17.0,-999.0,-999,-99.99,,,-99.99,,2013-02-10 18:00:00,
2013-02-10 11:52:00,34.0,-99.9,-100.00,NNW,344,17.0,-999.0,-999,-99.99,,,-99.99,,2013-02-10 18:52:00,
2013-02-10 12:00:00,36.0,-99.9,-100.00,North,2,14.0,-999.0,-999,-99.99,,,-99.99,,2013-02-10 19:00:00,
2013-02-10 12:52:00,36.0,-99.9,-100.00,North,2,14.0,-999.0,-999,-99.99,,,-99.99,,2013-02-10 19:52:00,
2013-02-10 13:00:00,35.0,-99.9,-100.00,North,2,13.0,-999.0,-999,-99.99,,,-99.99,,2013-02-10 20:00:00,
2013-02-10 13:53:00,35.0,-99.9,-100.00,North,2,13.0,-999.0,-999,-99.99,,,-99.99,,2013-02-10 20:53:00,
2013-02-10 14:00:00,35.0,-99.9,-100.00,NNE,32,8.0,-999.0,-999,-99.99,,,-99.99,,2013-02-10 21:00:00,
2013-02-10 14:52:00,35.0,-99.9,-100.00,NNE,32,8.0,-999.0,-999,-99.99,,,-99.99,,2013-02-10 21:52:00,
2013-02-10 15:00:00,35.0,-99.9,-100.00,NNE,15,11.0,-999.0,-999,-99.99,,,-99.99,,2013-02-10 22:00:00,
2013-02-10 15:53:00,35.0,-99.9,-100.00,NNE,15,11.0,-999.0,-999,-99.99,,,-99.99,,2013-02-10 22:53:00,
2013-02-10 16:00:00,34.0,-99.9,-100.00,North,11,12.0,-999.0,-999,-99.99,,,-99.99,,2013-02-10 23:00:00,
2013-02-10 16:53:00,34.0,-99.9,-100.00,North,11,12.0,-999.0,-999,-99.99,,,-99.99,,2013-02-10 23:53:00,
2013-02-10 17:00:00,34.0,-99.9,-100.00,North,3,9.0,-999.0,-999,-99.99,,,-99.99,,2013-02-11 00:00:00,
2013-02-10 17:52:00,34.0,-99.9,-100.00,North,3,9.0,-999.0,-999,-99.99,,,-99.99,,2013-02-11 00:52:00,
2013-02-10 18:00:00,29.0,-99.9,-100.00,NE,46,9.0,-999.0,-999,-99.99,,,-99.99,,2013-02-11 01:00:00,
2013-02-10 18:52:00,29.0,-99.9,-100.00,NE,46,9.0,-999.0,-999,-99.99,,,-99.99,,2013-02-11 01:52:00,
2013-02-10 19:00:00,25.0,-99.9,-100.00,ENE,62,7.0,-999.0,-999,-99.99,,,-99.99,,2013-02-11 02:00:00,
2013-02-10 19:52:00,25.0,-99.9,-100.00,ENE,62,7.0,-999.0,-999,-99.99,,,-99.99,,2013-02-11 02:52:00,
2013-02-10 20:00:00,22.0,-99.9,-100.00,SE,126,4.0,-999.0,-999,-99.99,,,-99.99,,2013-02-11 03:00:00,
2013-02-10 20:52:00,22.0,-99.9,-100.00,SE,126,4.0,-999.0,-999,-99.99,,,-99.99,,2013-02-11 03:52:00,
2013-02-10 21:00:00,23.0,-99.9,-100.00,SE,134,3.0,-999.0,-999,-99.99,,,-99.99,,2013-02-11 04:00:00,
2013-02-10 21:52:00,23.0,-99.9,-100.00,SE,134,3.0,-999.0,-999,-99.99,,,-99.99,,2013-02-11 04:52:00,
2013-02-10 22:00:00,23.0,-99.9,-100.00,East,96,5.0,-999.0,-999,-99.99,,,-99.99,,2013-02-11 05:00:00,
2013-02-10 22:53:00,23.0,-99.9,-100.00,East,96,5.0,-999.0,-999,-99.99,,,-99.99,,2013-02-11 05:53:00,
2013-02-10 23:00:00,21.0,-99.9,-100.00,East,82,3.0,-999.0,-999,-99.99,,,-99.99,,2013-02-11 06:00:00,
2013-02-10 23:52:00,21.0,-99.9,-100.00,East,82,3.0,-999.0,-999,-99.99,,,-99.99,,2013-02-11 06:52:00,